Regional Weather Roundup
Issued by NWS

Home | Current Version | Previous Version | Text Only | Print | Product List | Glossary Off
Versions: 1 2 3 4 5 6 7 8 9 10 11 12 13 14 15 16 17 18 19 20 21 22 23 24 25 26 27

000
ASUS45 KBOU 252210
RWRCO

WEATHER ROUNDUP FOR COLORADO
NATIONAL WEATHER SERVICE DENVER/BOULDER CO
400 PM MDT SUN SEP 25 2016

NOTE: "FAIR" INDICATES FEW OR NO CLOUDS BELOW 12000 FEET WITH NO
SIGNIFICANT WEATHER AND/OR OBSTRUCTIONS TO VISIBILITY.

COZ001>005-013-030-031-252300-
...NORTHWEST COLORADO...

CITY           SKY/WX    TMP DP  RH WIND       PRES   REMARKS
CRAIG          FAIR      63  29  27 W8        30.47F
HAYDEN         FAIR      59  27  29 W5        30.48S
MEEKER         FAIR      62  36  37 SW6       30.46S
MOUNT WERNER   NOT AVBL
STEAMBOAT SPGS FAIR      59  32  36 SW8       30.48R
WALDEN           N/A     55  21  26 W12       30.50S
$$

COZ006>008-011-252300-
...WEST CENTRAL VALLEYS...

CITY           SKY/WX    TMP DP  RH WIND       PRES   REMARKS
GRAND JUNCTION FAIR      70  38  31 W8        30.36F
MONTROSE       FAIR      64  36  35 N8        30.41F
EAGLE          SUNNY     66  23  19 S6        30.43F
RIFLE          FAIR      67  29  24 CALM      30.39F
DELTA          NOT AVBL
NUCLA          FAIR      68  28  22 NW7       30.40F
$$

COZ017>023-064>068-252300-
...SOUTHWEST COLORADO...

CITY           SKY/WX    TMP DP  RH WIND       PRES   REMARKS
DURANGO        FAIR      69  27  20 VRB5      30.35F
CORTEZ         FAIR      71  32  23 SW3       30.33F
PAGOSA SPRINGS FAIR      67  23  18 W6        30.40F
TELLURIDE      FAIR      59  33  37 W12       30.51S
WOLF CREEK PAS FAIR      46  28  49 S7        30.66S
$$

COZ009-010-012-014-032>034-037-058>063-252300-
...CENTRAL COLORADO...

CITY           SKY/WX    TMP DP  RH WIND       PRES   REMARKS
ASPEN          FAIR      63  24  22 N8        30.45S
BUENA VISTA    FAIR      65  24  21 SW7       30.42S
COPPER MTN     FAIR      52  19  28 NW8G17    30.66R
BERTHOUD PASS  FAIR      37  25  60 N13G21    30.68R
COTTONWOOD PAS FAIR      61  23  23 E6        30.53R
GUNNISON       FAIR      63  32  31 S5        30.43F
KREMMLING      FAIR      63  21  20 W6        30.46S
LEADVILLE      FAIR      57  18  21 NW13G20   30.51S
MONARCH PASS   FAIR      46  27  46 W13G22    30.74S
SALIDA         FAIR      68  28  22 SE7       30.46F
SUNLIGHT       FAIR      45  36  70 W6        30.65S
WILKERSON PASS FAIR      48  21  34 CALM      30.64R
$$

COZ069>075-252300-
...SAN LUIS VALLEY/SANGRE DE CRISTO MOUNTAINS...

CITY           SKY/WX    TMP DP  RH WIND       PRES   REMARKS
ALAMOSA        FAIR      66  25  21 VRB3      30.40F
LA VETA PASS   FAIR      48  30  49 MISG      30.56S
SAGUACHE       NOT AVBL
$$

COZ035-036-038>040-252300-
...NORTHERN COLORADO FRONT RANGE...

CITY           SKY/WX    TMP DP  RH WIND       PRES   REMARKS
DENVER INTL AP FAIR      66  29  24 E7        30.37F
DMNS CITY PARK NOT AVBL
AURORA         SUNNY     66  30  25 E6        30.38S
FRONT RANGE AP SUNNY     68  30  24 N12       30.39S
ERIE MUNI ARPT FAIR      68  29  23 E7        30.37R
BOULDER MUN AP FAIR      68  32  26 E7        30.37R
CENTENNIAL     FAIR      65  29  25 VRB3      30.38S
BROOMFIELD     SUNNY     66  30  26 E5        30.38S
FORT COLLINS   FAIR      68  34  28 S6        30.34F
LONGMONT       FAIR      71  33  25 E3        30.38S
$$

COZ041-046-047-076>085-087-088-252300-
...PIKES PEAK/PALMER DIVIDE AND SOUTHERN FOOTHILLS...

CITY           SKY/WX    TMP DP  RH WIND       PRES   REMARKS
COLO. SPRINGS  FAIR      65  30  27 SW7       30.41S
A. F. ACADEMY  FAIR      63  30  28 SE9G17    30.40F
SCHRIEVER AFB  NOT AVBL
ELLICOTT       NOT AVBL
FALCON         FAIR      63  30  28 SE6       30.44S
FORT CARSON    FAIR      65  30  26 E12       30.38S
LIMON          FAIR      66  27  23 NW6       30.38F
MONUMENT HILL  FAIR      61  30  31 E6        30.44S
TRINIDAD       FAIR      66  29  24 NE10      30.40S
$$

COZ042>045-048>051-090-091-252300-
...NORTHEAST COLORADO...

CITY           SKY/WX    TMP DP  RH WIND       PRES   REMARKS
GREELEY ARPT   FAIR      68  30  24 CALM      30.36S
AKRON          FAIR      66  30  26 N18       30.37R
BURLINGTON     FAIR      69  32  25 N17       30.34S
WRAY           NOT AVBL
STERLING       FAIR      68  32  26 N21G28    30.34S
HOLYOKE        FAIR      66  32  28 N20G25    30.34R
FORT MORGAN    FAIR      70  27  19 N12       30.35F
$$

COZ086-089-092>099-252300-
...SOUTHEAST COLORADO...

CITY           SKY/WX    TMP DP  RH WIND       PRES   REMARKS
PUEBLO         FAIR      70  31  23 NE9       30.34F
LA JUNTA       FAIR      71  31  22 E6        30.34S
LAMAR          FAIR      74  31  20 NE13G21   30.31S
SPRINGFIELD    NOT AVBL
$$




USA.gov is the U.S. government's official web portal to all federal, state and local government web resources and services.